Regional Weather Roundup
Issued by NWS Charleston, SC

Home | Current Version | Previous Version | Text Only | Print | Product List | Glossary On
Versions: 1 2 3 4 5 6 7 8 9 10 11 12 13 14 15 16 17 18 19 20 21 22 23 24 25 26 27 28 29 30 31 32 33 34 35 36 37 38 39 40 41 42 43 44 45 46 47 48 49 50
000
ASUS42 KCHS 261027
RWRCHS

REGIONAL WEATHER ROUNDUP
NATIONAL WEATHER SERVICE CHARLESTON SC
600 AM EDT WED APR 26 2017

NOTE: "FAIR" INDICATES FEW OR NO CLOUDS BELOW 12,000 FEET WITH NO
SIGNIFICANT WEATHER AND/OR OBSTRUCTIONS TO VISIBILITY.

NOT ALL STATIONS ARE QUALITY CONTROLLED. USE DATA WITH CAUTION...
ESPECIALLY DEWPOINT OBSERVATIONS.

SCZ027-030-031-034>040-042>050-261100-
...SOUTHEAST SOUTH CAROLINA...

CITY           SKY/WX    TMP DP  RH WIND       PRES   REMARKS
N CHARLESTON   PTCLDY    61  58  90 CALM      29.77S
WATERFRONT PRK   N/A     69  67  93 S6        29.75F
JOHNS ISLAND   FAIR      63  63 100 CALM      29.78R
PINOPOLIS        N/A     66  63  88 S5        29.67S
MONCKS CORNER  FAIR      61  59  94 CALM      29.78R
SUMMERVILLE    FAIR      59  59 100 CALM      29.79R
BEAUFORT MCAS  PTCLDY    63  63 100 SW5       29.79R
BEAUFORT ARPT  FAIR      64  63  94 SW6       29.78R
HILTON HEAD IS NOT AVBL
WALTERBORO     MOSUNNY   55  55 100 CALM      29.79R
ALLENDALE      FAIR      61  59  94 CALM      29.77R

...SOUTHERN MIDLANDS AND PEE DEE...

CITY           SKY/WX    TMP DP  RH WIND       PRES   REMARKS
GEORGETOWN     FAIR      55  54  94 CALM      29.78S
KINGSTREE      FAIR      55  55 100 CALM      29.78R
ORANGEBURG     CLEAR     61  60  97 CALM      29.77S
BARNWELL       FAIR      59  59 100 CALM      29.78R
AIKEN          FAIR      54  52  94 CALM      29.81R
MANNING        FAIR      57  55  94 CALM      29.77S
COLUMBIA       CLEAR     61  57  87 CALM      29.76R
SUMTER         CLEAR     61  59  93 CALM      29.75R
FLORENCE       PTCLDY    56  56 100 CALM      29.79R FOG
MYRTLE BEACH   PTCLDY    60  58  92 SW3       29.79R
N MYRTLE BEACH PTCLDY    60  59  96 NW3       29.77S

$$

GAZ063-065-086>088-099>101-113>116-118-119-134>141-150-261100-
...SOUTHEAST GEORGIA...

CITY           SKY/WX    TMP DP  RH WIND       PRES   REMARKS
SAVANNAH ARPT  CLEAR     63  56  78 CALM      29.80R
HUNTER AAF     CLEAR     62  60  94 W6        29.77R
FORT STEWART   PTCLDY    60  57  87 CALM      29.78R
STATESBORO     CLEAR     60  60 100 CALM      29.79R
SYLVANIA       SUNNY    N/A N/A N/A CALM      29.79R
CLAXTON        FAIR     N/A N/A N/A CALM      29.80R

...CSRA...CENTRAL AND FAR SOUTHEAST GEORGIA...

CITY           SKY/WX    TMP DP  RH WIND       PRES   REMARKS
THOMSON        CLEAR     54  53  97 CALM      29.82R
AUGUSTA-BUSH   FOG       55  54  96 CALM      29.77R VSB 1/2
AUGUSTA-DANIEL CLEAR     62  57  83 SE3       29.77R
SWAINSBORO     FAIR      55  55 100 CALM      29.80R
VIDALIA        PTCLDY    59  57  94 SW5       29.80R
EASTMAN        FAIR      61  57  88 CALM      29.82R
HAZLEHURST     FAIR      62  61  96 SW3       29.79S
ALMA           CLEAR     57  56  96 CALM      29.80R
WAYCROSS       CLEAR     59  59 100 SW3       29.80S
JESUP          FAIR      54  52  94 CALM      29.81R
BAXLEY         FAIR      59  59 100 CALM      29.80R
BRUNSWICK      CLEAR     61  59  94 W5        29.82R
SAINT SIMONS   CLEAR     65  58  78 W9        29.81R

$$

SCZ027-028-034-036>038-045-046-048>050-GAZ119-141-261100-
...LAKE AND SUPPLEMENTAL COASTAL OBSERVATIONS...

STATION/POSITION TIME  TEMP    WIND        PRES    WAVE   SWELL
                       AIR SEA DIR/SP/G            HT/PER HT/PER/DIR
                 (UTC) (F)     (DEG/KT/KT) (MB)    (FT/S) (FT/S/D)
WINYAH BAY       0945   59        CALM     1008.0S
LAKE MURRAY      1020   64     180/  5/  6 1007.5
ACE BASIN NERRS  0930   64        CALM     1008.0S
FORT PULASKI     1000   66 74  270/  6/  7 1009.0
SAPELO ISLAND    0930   65     250/  6     1009.0S

$$

ANZ835-935-AMZ111-154-330-350-352-354-370-450-454-472-261100-
...C-MAN AND BUOY OBSERVATIONS...

STATION/POSITION TIME  TEMP    WIND        PRES    WAVE   SWELL
                       AIR SEA DIR/SP/G            HT/PER HT/PER/DIR
                 (UTC) (F)     (DEG/KT/KT) (MB)    (FT/S) (FT/S/D)
BUOY 41004       1010   71 72  190/  2/  4 1008.3
BUOY 41008       0950   69 71  240/ 14/ 16 1008.8R   4/ 5   2/ 70/ 9
FOLLY BEACH CMAN 1000   70     150/  9/ 10 1008.8R
CAPERS NEARSHORE 1008   72 71  180/ 10/ 14 1008.0R
FRIPP NEARSHORE  0908   71 70  230/  2/  4 1007.7S


STATION/POSITION TIME  TEMP    WIND        PRES    WAVE   SWELL
                       AIR SEA DIR/SP/G            HT/PER HT/PER/DIR
                 (UTC) (F)     (DEG/KT/KT) (MB)    (FT/S) (FT/S/D)
5E ST. MARYS GA  1000      72                N/A     3/ 9   2/100/11
FRYING PAN BUOY  1010   69 74  290/ 12/ 16 1008.0
BUOY 41025       0950   68 77  270/ 12/ 14 1006.1R   7/ 9   7/160/ 9
CAPE LOOKOUT NC  1000   63     270/ 10/ 12 1007.0R
BUOY 41002       0950   73 75  240/ 14/ 17 1009.4R   9/ 9   8/140/ 9
BUOY 41010       1010   76 78  190/ 12/ 14 1010.5
ST AUGUSTINE FL  1000   61 72  220/  6/  7 1011.5R


$$



USA.gov is the U.S. government's official web portal to all federal, state and local government web resources and services.